PDT,Max TemperatureF,Mean TemperatureF,Min TemperatureF,Max Dew PointF,MeanDew PointF,Min DewpointF,Max Humidity, Mean Humidity, Min Humidity, Max Sea Level PressureIn, Mean Sea Level PressureIn, Min Sea Level PressureIn, Max VisibilityMiles, Mean VisibilityMiles, Min VisibilityMiles, Max Wind SpeedMPH, Mean Wind SpeedMPH, Max Gust SpeedMPH,PrecipitationIn, CloudCover, Events, WindDirDegrees
2012-10-1,75,58,40,57,49,38,94,72,39,30.37,30.24,30.11,10,10,10,8,3,,0.00,1,,259
2012-10-2,64,57,51,52,44,36,88,64,40,30.28,30.20,30.15,10,10,10,10,6,,0.00,5,,5
2012-10-3,64,50,37,41,36,30,90,57,28,30.39,30.32,30.27,10,10,10,16,6,24,0.00,0,,31
2012-10-4,65,48,32,40,35,31,94,62,31,30.30,30.27,30.25,10,10,10,13,4,,0.00,0,,53
2012-10-5,70,50,30,39,34,29,95,60,24,30.30,30.26,30.22,10,10,10,16,4,,0.00,0,,100
2012-10-6,73,52,31,39,32,25,94,56,21,30.25,30.19,30.12,10,10,10,9,3,,0.00,0,,90
2012-10-7,73,52,31,41,35,27,88,61,18,30.12,30.04,29.94,10,10,10,7,2,,0.00,0,,150
2012-10-8,70,52,34,48,40,32,93,69,35,30.07,29.99,29.96,10,9,2,7,2,,0.00,0,,248
2012-10-9,62,50,38,48,42,37,100,88,58,30.16,30.09,30.04,10,7,1,6,2,,0.00,2,,171
2012-10-10,50,44,38,50,44,37,100,98,91,30.07,30.04,29.99,10,3,0,5,1,,0.00,4,Fog,194
2012-10-11,61,50,39,48,44,39,100,87,60,30.02,29.91,29.82,10,7,1,6,2,,0.00,4,,101
2012-10-12,56,50,44,54,50,45,100,89,77,30.02,29.91,29.84,10,9,3,14,6,22,0.05,8,Rain,202
2012-10-13,61,58,54,59,55,50,100,89,81,30.17,30.13,30.02,10,10,5,15,9,,0.32,8,Rain,187
2012-10-14,65,61,57,59,56,54,100,87,69,30.13,29.95,29.88,10,9,2,22,9,32,0.29,8,Rain,194
2012-10-15,63,58,52,61,57,52,100,94,77,29.99,29.77,29.59,10,9,2,18,7,26,0.33,7,Rain,205
2012-10-16,59,52,42,55,46,41,94,75,55,30.30,29.95,29.64,10,10,10,24,12,39,0.00,2,Rain,216
2012-10-17,58,48,37,44,40,37,100,88,55,30.35,30.30,30.24,10,8,1,7,0,,0.00,4,,3
2012-10-18,63,48,35,55,45,35,100,88,51,30.24,29.99,29.83,10,8,2,7,2,,0.33,4,Rain,198
2012-10-19,58,52,47,56,53,46,100,92,75,29.86,29.82,29.77,10,9,3,17,10,20,0.17,8,Rain,202
2012-10-20,52,44,37,45,41,36,100,87,61,29.94,29.90,29.85,10,9,2,16,10,24,0.18,6,Rain,205
2012-10-21,52,42,35,43,38,35,100,90,66,29.91,29.84,29.78,10,7,1,12,4,20,0.24,4,Rain,192
2012-10-22,43,38,32,43,39,32,100,98,93,29.77,29.63,29.58,10,8,2,8,3,,0.33,6,Rain,159
2012-10-23,52,45,39,41,39,37,99,83,59,29.88,29.81,29.69,10,10,10,18,7,20,0.00,7,Rain,175
2012-10-24,52,46,42,44,42,39,100,88,64,30.19,30.01,29.86,10,10,1,9,3,,0.17,8,Rain,134
2012-10-25,53,46,41,45,43,41,100,91,66,30.44,30.34,30.17,10,8,0,6,2,,0.00,6,Fog,131
2012-10-26,52,46,41,49,45,40,100,96,82,30.30,30.12,30.07,10,6,0,12,4,,0.13,8,Fog-Rain,95
2012-10-27,58,53,49,58,51,46,100,96,76,30.08,29.89,29.78,10,7,2,16,8,22,0.76,8,Rain,154
2012-10-28,58,55,51,58,54,50,100,96,85,29.96,29.89,29.77,10,9,4,15,8,,0.23,8,Rain,209
2012-10-29,62,56,50,58,53,50,100,90,68,30.04,29.89,29.76,10,8,1,18,7,26,0.59,7,Rain,199
2012-10-30,59,55,51,59,55,52,100,99,94,29.99,29.85,29.76,10,8,2,10,3,,0.92,8,Rain,134
2012-10-31,59,57,55,58,56,52,100,97,82,29.77,29.68,29.64,10,9,4,15,4,,0.42,8,Rain,121